Location: ??????
(42.0089°N, 44.3281°E)
Time: 09:57:24
(UTC+00:00)

CZ-2C R/B - Pass Details

Date: 05 June 2022
Orbit: 785 x 869 km, 98.2° (Epoch: 30 June)

Event Time Altitude Azimuth Distance (km) Brightness Sun altitude
Rises 00:17:14 0° 125° (SE) 3,298 5.9 -11.2°
Reaches altitude 10° 00:20:04 10° 109° (ESE) 2,385 5.4 -10.8°
Maximum altitude 00:23:53 21° 62° (ENE) 1,777 5.5 -10.3°
Drops below altitude 10° 00:27:45 10° 16° (NNE) 2,435 6.1 -9.8°
Sets 00:30:40 0° 1° (N) 3,389 6.5 -9.4°
